Theta_e
327 327 328 328 327 327 328 329 329 327 325 325 324 325 329 331 329 327 325 322 320 318 315 314 313 311 309 309 308 308 309 309 308 308 308 307 307 308 309 309 308 305 302 303
329 327 327 328 327 327 327 326 326 326 326 324 327 326 329 330 328 327 325 322 319 318 315 313 312 311 309 309 308 308 309 309 309 308 308 308 307 308 309 309 309 306 302 303
331 329 329 331 329 327 326 326 326 326 325 327 327 328 330 330 328 327 325 321 319 317 314 313 312 310 310 309 308 308 309 308 308 308 306 305 307 307 308 310 309 306 303 303
334 331 334 330 326 326 326 325 324 324 325 326 328 328 329 328 328 326 323 321 319 315 314 312 311 310 309 308 308 308 308 308 307 305 303 304 306 305 308 308 308 305 303 304
338 334 332 327 325 326 326 324 324 324 326 325 325 325 326 325 325 325 323 319 317 315 313 311 310 309 308 308 308 308 308 307 304 304 303 303 303 304 305 305 304 303 303 304
334 340 338 330 327 324 324 326 324 325 328 326 326 326 328 323 322 322 319 317 315 313 312 311 309 307 308 308 308 308 307 305 304 303 303 303 304 304 305 304 304 303 303 304
333 336 330 327 324 324 327 328 326 326 327 327 328 329 325 321 320 318 316 314 313 311 311 310 308 306 307 308 308 308 305 306 306 305 305 305 305 305 305 304 305 305 305 305
333 333 337 328 324 326 331 329 327 326 327 327 327 323 322 320 319 316 314 312 311 311 310 308 306 306 307 308 308 307 305 306 307 307 306 305 307 308 307 307 306 305 305 304
335 333 335 329 329 328 328 328 328 328 327 326 324 322 320 319 317 315 313 312 310 310 309 306 305 307 308 308 307 306 306 307 307 307 307 308 308 308 307 307 307 306 305 304
334 334 333 330 328 327 326 326 327 327 326 324 324 321 320 318 317 314 312 311 309 309 308 306 306 307 308 307 306 307 308 308 307 307 306 308 307 306 306 306 306 306 306 306
330 330 330 329 328 327 325 326 326 325 324 324 322 321 319 318 316 313 311 309 309 309 308 308 307 307 307 306 307 307 307 307 306 306 306 306 307 306 305 305 305 304 304 304
329 327 328 326 329 328 326 326 325 324 323 322 321 320 318 317 313 311 310 309 308 308 308 308 307 307 306 307 307 307 307 306 306 305 306 306 306 306 306 304 303 303 302 301
326 329 330 330 330 326 326 325 324 323 322 322 319 318 316 314 312 310 309 308 308 308 308 308 307 306 306 307 307 307 307 307 307 305 307 307 307 307 307 306 305 304 304 304
326 327 329 329 329 325 326 324 321 322 320 319 318 316 314 313 309 309 309 308 308 308 308 307 307 307 306 307 307 307 308 306 306 307 307 307 306 306 306 306 306 306 306 304
325 326 328 328 326 325 323 322 323 322 320 318 316 315 313 312 310 309 308 308 308 308 307 307 307 307 307 307 307 307 307 307 307 307 307 305 306 306 306 306 306 306 306 305
324 325 325 326 326 325 323 323 323 322 320 317 316 314 313 311 310 309 308 308 308 308 307 307 307 307 307 307 306 307 307 306 306 306 307 306 306 306 306 306 306 306 305 305
325 326 326 326 326 325 324 323 323 321 319 317 315 313 312 311 309 308 308 308 308 308 307 307 306 306 307 306 307 306 307 308 307 306 307 306 306 306 307 306 306 305 305 303
320 324 324 325 325 325 324 323 321 319 318 316 314 313 312 311 310 309 308 308 308 307 307 306 307 308 307 307 307 307 308 308 308 307 306 306 306 307 307 306 305 305 304 303
316 318 320 323 324 324 323 322 320 318 317 315 314 313 312 311 310 308 308 308 307 308 307 307 307 306 308 308 307 307 307 308 307 306 307 306 307 307 307 305 303 302 302 302
316 315 316 321 321 322 322 320 319 317 316 315 314 313 312 311 309 308 308 307 308 307 307 308 307 308 307 306 304 306 306 305 306 307 306 307 306 305 303 301 300 301 301 301
316 315 316 321 321 320 320 319 318 317 315 315 315 313 312 310 309 308 309 310 309 308 309 308 308 307 307 308 306 306 305 306 307 307 307 306 304 301 300 300 299 299 299 299
317 315 316 320 320 320 319 318 317 316 316 315 313 312 311 310 309 309 309 309 308 307 307 307 307 307 308 306 307 305 306 307 306 306 305 302 300 299 299 298 298 297 297 297
320 316 317 320 320 320 318 318 317 316 316 314 313 312 311 310 309 309 310 309 308 305 307 308 308 307 306 306 306 307 306 305 305 303 300 299 298 298 297 296 296 295 295 295
319 319 317 318 319 319 320 318 317 316 315 313 313 312 311 310 309 309 309 307 307 307 309 306 306 304 304 306 306 305 305 304 301 299 298 297 297 296 296 295 295 294 294 293
317 319 318 318 319 319 319 318 317 316 314 313 313 312 311 310 309 309 308 308 307 308 306 302 302 303 306 305 304 304 301 299 298 297 297 296 296 295 295 294 293 293 293 293
318 319 318 318 318 319 318 317 317 315 314 314 313 312 311 310 309 309 308 308 308 307 305 303 304 304 304 304 302 300 298 297 296 296 296 295 295 294 294 293 293 293 294 294
318 318 318 317 318 318 317 317 316 315 314 313 312 311 310 309 308 309 308 309 308 307 306 305 303 303 303 301 299 297 296 295 296 295 295 294 294 294 295 295 295 295 294 294
Wind_Speed
15 6 10 13 14 14 13 12 10 12 12 10 8 6 8 10 13 15 16 16 14 13 13 12 9 7 5 5 6 4 4 2 2 3 3 5 6 6 4 5 7 10 12 10
10 9 10 12 11 12 12 11 12 13 15 11 5 3 8 11 14 15 16 16 15 13 14 12 10 8 6 6 7 5 5 2 0 2 3 5 6 7 4 4 6 8 11 11
11 10 9 9 11 12 10 8 9 11 6 4 3 5 8 10 12 14 15 15 15 14 15 12 10 8 8 7 7 6 5 2 1 3 4 5 5 7 6 5 4 6 8 8
5 8 13 4 7 1 6 9 6 7 3 1 3 4 5 7 10 11 13 14 14 16 14 12 10 9 8 8 8 8 5 1 2 4 4 2 4 5 5 5 5 6 6 6
4 3 11 5 6 7 8 7 6 7 6 5 6 6 6 6 8 10 12 15 16 16 14 12 10 9 10 10 10 8 5 1 2 2 3 5 6 5 5 5 5 4 3 5
9 11 16 7 10 6 3 8 6 8 8 8 9 7 7 10 10 11 14 16 17 16 14 12 10 10 11 11 11 9 5 3 2 4 4 6 5 5 6 5 5 4 3 4
10 8 5 8 11 9 7 2 7 7 8 10 7 5 11 12 12 14 16 16 16 15 12 11 11 12 12 12 12 8 5 4 3 3 2 1 1 2 3 4 4 5 5 6
9 12 6 13 11 8 6 7 9 8 10 10 9 10 12 12 13 16 17 17 15 13 11 12 12 14 13 13 11 8 6 5 4 3 3 3 4 5 5 5 6 6 5 8
8 5 8 16 4 7 6 10 9 10 9 11 11 12 13 12 13 14 16 15 13 12 13 12 14 13 14 14 10 8 7 5 5 4 5 5 6 7 8 6 8 9 9 9
5 7 10 13 6 9 7 7 8 9 12 13 12 13 13 12 12 14 14 13 13 14 14 14 15 14 14 13 10 9 7 5 4 5 4 5 6 6 8 8 9 11 11 11
3 4 6 8 12 11 9 10 11 12 13 13 14 13 13 12 12 13 13 13 13 14 15 15 16 16 13 12 10 9 6 5 5 7 6 6 7 8 9 9 9 10 12 13
6 7 9 8 14 14 14 14 14 15 14 12 13 13 14 11 14 14 14 14 14 14 15 16 17 15 14 11 10 7 7 7 4 6 5 5 7 9 6 7 9 11 13 13
1 5 2 2 13 16 16 15 14 13 14 15 14 15 15 14 15 14 14 14 16 17 17 18 16 15 13 11 9 7 6 4 7 6 6 6 8 10 11 8 8 11 13 15
3 4 6 10 8 14 15 16 16 15 16 15 16 16 15 15 16 15 14 15 17 18 19 17 15 13 12 10 9 8 6 6 8 8 7 8 9 11 10 9 12 15 13 9
6 4 2 8 14 15 18 17 16 15 14 15 16 16 17 17 16 15 16 18 19 18 17 15 13 12 11 11 10 8 8 8 7 7 8 9 10 10 10 10 13 16 16 12
6 6 6 11 14 17 17 17 16 15 14 17 16 16 16 15 16 17 19 20 20 18 16 14 12 11 11 11 10 9 9 9 8 9 10 9 9 10 11 13 15 16 17 15
5 8 8 10 13 15 16 14 13 14 17 17 17 18 17 16 17 18 19 19 16 15 14 13 11 11 10 10 9 8 7 6 8 10 10 8 9 10 12 14 14 15 15 11
5 5 6 6 11 13 13 12 15 18 17 19 20 19 18 17 16 19 20 19 15 13 13 12 11 9 8 8 8 8 7 7 7 7 8 7 9 10 12 13 14 14 14 11
9 10 8 4 5 10 12 14 17 19 20 21 21 18 17 15 16 18 20 19 16 14 14 13 12 10 8 6 8 8 7 7 7 6 5 5 6 10 10 13 13 12 12 11
12 12 9 6 8 13 15 18 20 21 21 21 19 18 16 15 17 19 20 18 15 12 13 12 10 9 7 6 8 8 6 5 5 3 5 6 9 9 10 9 10 10 10 11
9 12 10 9 11 13 17 21 23 22 22 21 19 17 16 16 18 19 19 16 14 10 11 11 10 9 8 6 6 7 3 2 1 3 5 7 8 9 8 9 9 10 10 10
5 8 11 12 13 15 18 21 21 22 22 19 17 17 17 17 18 18 16 12 16 14 12 10 11 9 5 5 6 1 2 3 4 5 7 8 8 7 8 9 9 9 9 9
2 7 11 14 15 17 21 22 22 23 22 20 19 18 17 17 18 18 15 11 15 16 11 8 7 9 8 5 3 5 7 6 6 7 7 7 7 8 8 9 9 9 9 9
3 6 12 14 16 20 17 22 22 21 20 19 18 18 17 16 15 14 14 16 15 15 6 8 9 8 7 7 8 8 7 7 7 7 8 8 8 8 8 9 9 9 9 9
6 6 13 17 17 16 22 24 23 21 21 18 18 17 14 13 15 16 16 18 18 15 10 10 9 11 8 9 9 9 8 8 8 8 8 8 8 9 9 9 10 9 9 9
6 9 15 19 19 23 25 26 21 22 21 19 18 17 15 14 16 18 19 19 17 13 13 12 10 10 11 11 11 10 10 9 9 9 9 9 10 10 10 10 10 11 11 11
6 9 14 18 18 21 24 25 23 21 20 19 19 18 16 17 21 19 20 18 16 13 13 11 12 12 12 12 12 11 11 10 10 9 10 10 11 11 12 11 12 12 12 12
Wind_Direction
243 260 201 212 199 198 216 236 253 270 289 301 290 314 183 181 167 173 178 173 172 175 169 168 166 161 161 153 163 150 153 135 67 13 4 5 2 349 349 5 16 18 21 22
192 181 195 209 202 205 222 248 264 276 284 287 57 250 168 174 176 179 181 176 174 174 170 172 169 171 168 166 172 168 167 159 319 341 351 356 5 10 359 2 13 17 23 31
189 182 178 219 217 220 232 236 259 275 331 68 179 187 178 174 183 182 178 174 175 173 172 171 170 171 171 172 171 173 170 173 308 314 320 331 349 5 15 15 19 17 22 27
140 186 219 125 130 322 258 272 247 253 257 167 106 112 150 170 180 176 171 173 169 170 167 166 164 169 164 170 172 171 171 172 313 322 323 327 353 17 25 30 25 16 17 18
172 226 311 228 197 203 221 269 214 229 162 152 137 155 149 165 170 164 168 165 165 164 161 160 166 167 171 171 171 174 168 130 352 27 65 69 50 39 38 29 14 13 18 15
202 206 215 228 135 150 142 260 195 213 176 169 167 218 112 152 150 145 152 155 154 156 157 161 164 165 172 172 172 173 164 132 110 102 92 77 60 50 46 34 29 10 4 351
197 206 217 128 146 152 220 116 139 179 168 167 186 46 118 136 139 145 146 148 151 155 161 165 163 166 175 172 175 164 167 156 160 148 124 61 3 354 10 5 354 354 342 326
198 216 216 143 152 214 107 119 147 161 159 161 117 125 132 139 141 144 146 148 157 157 159 159 163 168 173 174 166 170 176 182 200 223 253 270 286 293 297 296 300 316 311 308
207 200 117 171 209 163 158 156 165 165 156 150 147 144 144 144 146 151 153 157 158 158 154 157 167 174 172 170 170 177 183 202 228 248 256 269 281 293 291 276 285 301 315 322
160 159 161 184 157 167 174 148 152 149 154 155 153 149 146 147 151 155 159 159 162 162 162 164 171 172 170 167 172 182 190 209 223 243 263 271 297 297 300 301 304 309 312 313
172 143 160 191 192 172 150 138 136 138 149 157 151 155 153 154 158 160 161 161 166 170 168 167 168 169 169 172 180 191 193 206 231 241 254 278 279 307 309 301 293 310 319 321
227 197 219 199 182 170 160 155 149 144 147 148 155 151 154 155 159 161 163 163 168 170 169 165 166 170 174 181 186 193 201 215 240 273 265 282 305 314 302 297 290 299 302 294
261 339 192 88 163 167 159 152 152 151 149 149 147 151 156 155 159 157 160 167 171 169 167 164 167 172 178 184 193 203 224 245 254 251 267 295 310 314 314 311 299 293 300 310
202 159 167 166 160 159 148 144 147 141 143 145 145 151 152 151 150 161 164 167 166 164 161 166 169 174 180 187 197 211 223 250 261 263 283 294 317 318 313 318 328 327 323 304
203 181 349 136 143 147 145 149 149 147 144 143 149 151 155 152 160 160 159 159 161 162 165 171 175 176 187 196 208 225 232 246 246 268 280 306 299 311 311 326 329 329 334 339
167 169 157 160 155 155 158 164 161 156 155 151 152 156 155 156 155 156 159 161 166 171 173 180 188 193 199 209 219 233 239 257 272 283 293 306 316 316 326 332 330 338 340 13
185 188 170 170 169 171 176 175 171 162 155 157 155 153 154 154 157 161 166 169 175 176 182 190 191 193 199 210 219 241 238 242 250 276 287 325 319 327 331 332 341 346 349 35
267 281 198 200 183 175 174 174 164 162 162 155 152 155 158 163 167 169 171 172 179 183 187 190 190 190 207 222 224 228 242 266 280 295 320 326 347 331 344 346 350 350 353 6
238 243 245 233 227 173 168 166 161 160 155 154 154 160 164 167 167 169 171 176 183 188 193 192 197 209 218 212 221 231 250 264 277 299 331 331 336 351 2 356 352 0 359 1
232 234 238 206 173 165 157 159 158 155 157 154 152 154 159 163 166 168 173 180 187 192 176 186 191 194 201 207 213 241 239 261 299 339 8 359 4 5 4 15 8 10 11 7
230 224 215 193 164 161 160 160 159 158 156 155 155 158 158 160 168 169 173 182 180 169 175 170 189 190 188 188 215 229 264 312 342 39 21 14 13 16 19 16 16 14 11 9
226 213 200 179 166 160 160 161 160 154 153 153 152 151 152 160 167 174 181 184 169 177 181 189 190 193 170 200 226 260 156 103 75 47 34 28 30 29 25 19 18 17 15 18
263 221 198 167 171 163 158 161 158 156 155 157 156 156 159 163 169 171 172 175 163 178 191 186 171 192 207 218 165 124 104 87 64 52 50 49 44 38 32 29 26 25 25 25
279 213 201 173 162 157 158 161 156 156 156 156 159 159 156 159 165 179 161 164 157 172 180 143 173 171 161 148 128 117 99 79 67 67 67 60 51 45 42 36 35 35 36 38
288 221 187 174 169 168 159 156 151 149 150 152 155 160 162 162 166 151 157 159 160 164 142 150 134 131 135 124 115 97 82 76 77 75 69 62 56 53 50 48 47 46 46 49
257 202 184 181 178 165 162 159 155 155 153 152 157 162 163 162 152 155 158 154 159 153 145 140 139 135 126 118 107 97 91 86 78 76 73 69 66 64 62 63 62 62 63 63
191 176 172 179 175 161 164 162 159 157 158 157 156 160 159 153 162 161 157 154 153 153 146 138 135 129 124 113 104 98 95 93 95 85 79 78 78 78 75 73 72 69 65 61